TimeEDT,TemperatureF,Dew PointF,Humidity,Sea Level PressureIn,VisibilityMPH,Wind Direction,Wind SpeedMPH,Gust SpeedMPH,PrecipitationIn,Events,Conditions,WindDirDegrees,DateUTC
12:15 AM,66.2,60.8,83,29.95,10.0,Calm,Calm,-,N/A,,Overcast,0,2013-07-27 04:15:00
12:35 AM,66.2,60.8,83,29.95,10.0,NW,3.5,-,N/A,,Overcast,310,2013-07-27 04:35:00
12:55 AM,66.2,60.8,83,29.95,10.0,Calm,Calm,-,N/A,,Overcast,0,2013-07-27 04:55:00
1:15 AM,64.4,60.8,88,29.95,10.0,Calm,Calm,-,N/A,,Overcast,0,2013-07-27 05:15:00
1:35 AM,66.2,60.8,83,29.95,10.0,Calm,Calm,-,N/A,,Overcast,0,2013-07-27 05:35:00
1:55 AM,64.4,60.8,88,29.95,10.0,Calm,Calm,-,N/A,,Overcast,0,2013-07-27 05:55:00
2:35 AM,64.4,60.8,88,29.94,10.0,Calm,Calm,-,N/A,,Mostly Cloudy,0,2013-07-27 06:35:00
2:55 AM,66.2,60.8,83,29.93,10.0,Calm,Calm,-,N/A,,Scattered Clouds,0,2013-07-27 06:55:00
3:15 AM,62.6,59.0,88,29.94,10.0,Calm,Calm,-,N/A,,Clear,0,2013-07-27 07:15:00
3:35 AM,62.6,59.0,88,29.94,10.0,Calm,Calm,-,N/A,,Clear,0,2013-07-27 07:35:00
3:55 AM,62.6,59.0,88,29.94,10.0,Calm,Calm,-,N/A,,Clear,0,2013-07-27 07:55:00
4:15 AM,62.6,60.8,94,29.94,10.0,Calm,Calm,-,N/A,,Clear,0,2013-07-27 08:15:00
4:35 AM,60.8,59.0,94,29.95,8.0,Calm,Calm,-,N/A,,Clear,0,2013-07-27 08:35:00
4:55 AM,60.8,59.0,94,29.95,10.0,Calm,Calm,-,N/A,,Clear,0,2013-07-27 08:55:00
5:15 AM,60.8,57.2,88,29.96,5.0,SSW,5.8,-,N/A,,Clear,200,2013-07-27 09:15:00
5:35 AM,60.8,57.2,88,29.97,10.0,Calm,Calm,-,N/A,,Clear,0,2013-07-27 09:35:00
5:55 AM,60.8,57.2,88,29.97,10.0,Calm,Calm,-,N/A,,Clear,0,2013-07-27 09:55:00
6:15 AM,60.8,57.2,88,29.98,10.0,Calm,Calm,-,N/A,,Clear,0,2013-07-27 10:15:00
6:35 AM,62.6,60.8,94,29.99,10.0,Calm,Calm,-,N/A,,Clear,0,2013-07-27 10:35:00
6:55 AM,64.4,60.8,88,29.99,10.0,Calm,Calm,-,N/A,,Clear,0,2013-07-27 10:55:00
7:15 AM,66.2,60.8,83,30.00,10.0,NNW,5.8,-,N/A,,Clear,330,2013-07-27 11:15:00
7:35 AM,66.2,60.8,83,30.00,10.0,NNW,8.1,-,N/A,,Clear,330,2013-07-27 11:35:00
7:55 AM,68.0,59.0,73,30.01,10.0,NW,6.9,-,N/A,,Clear,320,2013-07-27 11:55:00
8:15 AM,69.8,59.0,68,30.01,10.0,NW,8.1,-,N/A,,Clear,310,2013-07-27 12:15:00
8:35 AM,69.8,60.8,73,30.02,10.0,West,6.9,-,N/A,,Clear,280,2013-07-27 12:35:00
8:55 AM,71.6,59.0,64,30.02,10.0,West,8.1,-,N/A,,Clear,280,2013-07-27 12:55:00
9:35 AM,71.6,59.0,64,30.01,10.0,NNW,6.9,-,N/A,,Clear,330,2013-07-27 13:35:00
9:55 AM,73.4,60.8,65,30.01,10.0,WNW,6.9,-,N/A,,Clear,290,2013-07-27 13:55:00
10:15 AM,75.2,60.8,61,30.01,10.0,North,5.8,-,N/A,,Clear,360,2013-07-27 14:15:00
10:35 AM,75.2,60.8,61,30.02,10.0,WNW,8.1,-,N/A,,Clear,300,2013-07-27 14:35:00
10:55 AM,75.2,60.8,61,30.02,10.0,North,5.8,-,N/A,,Clear,360,2013-07-27 14:55:00
11:15 AM,77.0,60.8,57,30.02,10.0,NW,8.1,-,N/A,,Clear,320,2013-07-27 15:15:00
11:35 AM,78.8,60.8,54,30.02,10.0,NW,8.1,-,N/A,,Clear,320,2013-07-27 15:35:00
11:55 AM,78.8,60.8,54,30.02,10.0,Calm,Calm,-,N/A,,Clear,0,2013-07-27 15:55:00
12:15 PM,78.8,60.8,54,30.02,10.0,Calm,Calm,-,N/A,,Clear,0,2013-07-27 16:15:00
12:35 PM,80.6,60.8,51,30.02,10.0,WSW,4.6,-,N/A,,Mostly Cloudy,250,2013-07-27 16:35:00
12:55 PM,80.6,60.8,51,30.02,10.0,South,4.6,-,N/A,,Mostly Cloudy,190,2013-07-27 16:55:00
1:15 PM,80.6,60.8,51,30.02,10.0,Calm,Calm,-,N/A,,Scattered Clouds,0,2013-07-27 17:15:00
1:35 PM,80.6,60.8,51,30.02,10.0,WSW,5.8,-,N/A,,Scattered Clouds,240,2013-07-27 17:35:00
1:55 PM,80.6,60.8,51,30.01,10.0,SW,5.8,-,N/A,,Mostly Cloudy,220,2013-07-27 17:55:00
2:15 PM,82.4,60.8,48,30.01,10.0,SSW,9.2,-,N/A,,Mostly Cloudy,210,2013-07-27 18:15:00
2:35 PM,82.4,60.8,48,30.02,10.0,SW,11.5,-,N/A,,Scattered Clouds,220,2013-07-27 18:35:00
2:55 PM,80.6,57.2,45,30.02,10.0,SSW,10.4,-,N/A,,Partly Cloudy,210,2013-07-27 18:55:00
3:15 PM,80.6,59.0,48,30.02,10.0,South,6.9,-,N/A,,Unknown,190,2013-07-27 19:15:00
3:35 PM,80.6,57.2,45,30.01,10.0,SSW,4.6,-,N/A,,Unknown,210,2013-07-27 19:35:00
3:55 PM,82.4,59.0,45,30.01,10.0,SW,8.1,-,N/A,,Unknown,220,2013-07-27 19:55:00